SCP
0 0 0 0 0 0 0 0 0 0 0 0 0 0 0 0 0 0 0 0 0 0 0 0 0 0 0 0 0 0 0 0 0 0 0 0 0 0 0 0 0 0 0
0 0 0 0 0 0 0 0 0 0 0 0 0 0 0 0 0 0 0 0 0 0 0 0 0 0 0 0 0 0 0 0 0 0 0 0 0 0 0 0 0 0 0
0 0 0 0 0 0 0 0 0 0 0 0 0 0 0 0 0 0 0 0 0 0 0 0 0 0 0 0 0 0 0 0 0 0 0 0 0 0 0 0 0 0 0
0 0 0 0 0 0 0 0 0 0 0 0 0 0 0 0 0 0 0 0 0 0 0 0 0 0 0 0 0 0 0 0 0 0 0 0 0 0 0 0 0 0 0
0 0 0 0 0 0 0 0 0 0 0 0 0 0 0 0 0 0 0 0 0 0 0 0 0 0 0 0 0 0 0 0 0 0 0 0 0 0 0 0 0 0 0
-0 0 -0 0 0 0 0 0 0 0 0 0 0 0 0 0 0 0 0 0 0 0 0 0 0 0 0 0 0 0 0 0 0 0 0 0 0 0 0 0 0 0 0
-0 0 0 0 0 0 0 0 0 0 0 0 0 0 0 0 0 0 0 0 0 0 0 0 0 0 0 0 0 0 0 0 0 0 0 0 0 0 0 0 0 0 0
0 0 0 0 0 0 0 0 0 0 0 0 0 0 0 0 0 0 0 0 0 0 0 0 0 0 0 0 0 0 0 0 0 0 0 0 0 0 0 0 0 0 0
0 0 0 0 0 0 0 0 0 0 0 0 0 0 0 0 0 0 0 0 0 0 0 0 0 0 0 0 0 0 0 0 0 0 0 0 0 0 0 0 0 0 0
0 0 0 0 0 0 0 0 0 0 0 0 0 0 0 0 0 0 0 0 0 0 0 0 0 0 0 0 0 0 0 0 0 0 0 0 0 0 0 0 0 0 0
0 0 0 0 0 0 0 0 0 0 0 0 0 0 0 0 0 0 0 0 0 0 0 0 0 0 0 0 0 0 0 0 0 0 0 0 0 0 0 0 0 0 0
0 0 0 0 0 0 0 0 0 0 0 0 0 0 0 0 0 0 0 0 0 0 0 0 0 0 0 0 0 0 0 0 0 0 0 0 0 0 0 0 0 0 0
0 0 0 0 0 0 0 0 0 0 0 0 0 0 0 0 0 0 0 0 0 0 0 0 0 0 0 0 0 0 0 0 0 0 0 0 0 0 0 0 0 0 0
0 0 0 0 0 0 0 0 0 0 0 0 0 0 0 0 0 0 0 0 0 0 0 0 0 0 0 0 0 0 0 0 0 0 0 0 0 0 0 0 0 0 0
0 0 0 0 0 0 0 0 0 0 0 0 0 0 0 0 0 0 0 0 0 0 0 0 0 0 0 0 0 0 0 0 0 0 0 0 0 0 0 0 0 0 0
0 0 0 0 0 0 0 0 0 0 0 0 0 0 0 0 0 0 0 0 0 0 0 0 0 0 0 0 0 0 0 0 0 0 0 0 0 0 0 0 0 0 0
0 0 0 0 0 0 0 0 0 0 0 0 0 0 0 0 0 0 0 0 0 0 0 0 0 0 0 0 0 0 0 0 0 0 0 0 0 0 0 0 0 0 0
0 0 0 0 0 0 0 0 0 0 0 0 0 0 0 0 0 0 0 0 0 0 0 0 0 0 0 0 0 0 0 0 0 0 0 0 0 0 0 0 0 0 0
0 0 0 0 0 0 0 0 0 0 0 0 0 0 0 0 0 0 0 0 0 0 0 0 0 0 0 0 0 0 0 0 0 0 0 0 0 0 0 0 0 0 0
0 0 0 0 0 0 0 0 0 0 0 0 0 0 0 0 0 0 0 0 0 0 0 0 0 0 0 0 0 0 0 0 0 0 0 0 0 0 0 0 0 0 0
0 0 0 0 0 0 0 0 0 0 0 0 0 0 0 0 0 0 0 0 0 0 0 0 0 0 0 0 0 0 0 0 0 0 0 0 0 0 0 0 0 0 0
0 0 0 0 0 0 0 0 0 0 0 0 0 0 0 0 0 0 0 0 0 0 0 0 0 0 0 0 0 0 0 0 0 0 0 0 0 0 0 0 0 0 0
0 0 0 0 0 0 0 0 0 0 0 0 0 0 0 0 0 0 0 0 0 0 0 0 0 0 0 0 0 0 0 0 0 0 0 0 0 0 0 0 0 0 0
0 0 0 0 0 0 0 0 0 0 0 0 0 0 0 0 0 0 0 0 0 0 0 0 0 0 0 0 0 0 0 0 0 0 0 0 0 0 0 0 0 0 0
0 0 0 0 0 0 0 0 0 0 0 0 0 0 0 0 0 0 0 0 0 0 0 0 0 0 0 0 0 0 0 0 0 0 0 0 0 0 0 0 0 0 0
0 0 0 0 0 0 0 0 0 0 0 0 0 0 0 0 0 0 0 0 0 0 0 0 0 0 0 0 0 0 0 0 0 0 0 0 0 0 0 0 0 0 0
Wind_Speed_500mb
37 38 37 36 34 34 36 38 41 43 46 49 53 57 59 60 62 64 65 66 65 62 56 60 68 69 75 74 74 78 83 91 88 99 90 88 84 75 90 85 86 80 81
40 41 42 44 44 44 44 44 47 50 53 56 57 57 59 60 60 62 65 65 66 68 68 65 65 65 71 75 77 77 79 80 86 88 83 84 87 86 77 86 88 80 71
44 47 48 50 50 50 50 52 54 56 59 62 64 65 65 63 63 63 65 66 66 66 66 67 70 69 74 74 75 74 74 78 79 78 82 75 75 66 81 85 79 78 72
44 46 48 50 52 55 56 57 58 59 61 62 63 65 64 63 64 65 64 64 63 60 59 60 63 66 69 73 72 73 73 71 70 72 73 80 72 74 74 81 83 87 86
57 56 56 54 53 53 53 55 57 58 58 59 60 59 59 58 61 65 66 65 62 61 58 55 54 57 61 65 66 68 66 63 60 62 64 67 70 60 59 67 76 90 75
62 62 61 59 56 54 52 51 51 52 52 54 55 54 53 53 55 58 59 59 54 51 51 49 48 47 45 49 49 49 48 47 47 44 42 38 37 36 38 41 40 44 46
62 61 59 58 56 55 54 54 52 51 49 47 46 48 49 50 52 54 53 51 48 44 42 41 38 37 39 38 39 38 36 34 33 31 31 30 29 30 31 32 33 39 40
56 56 58 59 58 56 54 51 48 46 45 46 45 45 46 48 52 50 48 47 44 41 38 37 37 36 33 31 33 35 34 33 27 24 22 22 23 24 24 26 29 33 37
58 59 58 57 55 53 50 48 47 44 42 40 41 42 43 43 43 44 44 40 37 37 38 37 35 33 33 32 32 32 33 33 36 35 35 37 37 40 42 37 30 29 28
57 55 53 51 48 45 44 43 42 42 41 40 37 36 36 36 38 39 40 35 32 32 32 33 32 36 39 32 25 23 26 28 30 29 28 29 30 31 31 27 27 27 27
47 45 43 43 42 42 41 41 40 39 38 36 34 33 33 35 36 37 38 36 35 34 33 34 33 34 32 34 26 25 25 25 25 23 22 20 19 20 21 20 20 19 19
35 36 37 36 36 36 37 38 38 37 36 35 35 33 34 33 34 36 37 37 37 34 34 34 35 36 32 32 31 26 23 21 20 19 19 21 22 24 24 23 21 20 20
27 29 31 34 35 37 39 40 40 39 39 39 38 37 36 36 37 38 35 34 34 34 32 31 31 33 32 30 30 28 25 23 23 22 24 26 27 28 29 30 30 30 28
26 29 32 36 40 40 39 40 41 42 40 36 38 39 38 35 33 36 40 38 33 31 30 30 32 32 31 30 27 26 25 26 26 28 28 29 31 32 32 34 36 37 37
32 38 42 44 45 44 42 42 42 41 40 37 34 36 36 36 29 36 39 38 33 34 30 29 29 27 26 25 25 26 26 27 28 29 31 33 34 35 36 38 39 41 42
38 41 45 49 51 52 53 49 41 40 40 41 40 40 34 34 30 34 33 35 34 32 30 30 29 28 28 29 30 30 30 32 33 34 35 36 38 40 42 43 43 44 45
45 49 51 53 54 54 53 55 56 43 42 35 37 39 39 40 32 31 33 34 32 30 29 29 30 30 31 32 34 36 39 38 39 39 40 41 42 44 47 47 47 48 48
49 52 54 55 56 56 55 53 52 52 49 44 39 38 36 38 36 33 38 34 29 29 30 31 31 32 34 37 39 41 43 43 43 44 44 44 45 47 50 51 51 51 53
50 51 54 55 56 56 55 52 50 49 48 47 42 36 35 34 33 33 34 34 34 32 32 33 35 37 39 40 42 44 46 47 48 48 48 49 50 51 53 53 56 57 58
51 53 55 55 53 53 52 51 48 46 45 44 42 39 36 37 34 33 32 34 35 36 37 39 40 41 43 45 46 48 49 50 50 50 50 51 51 52 54 57 58 60 60
52 52 50 48 48 48 48 46 45 44 43 42 41 38 38 39 41 40 40 38 40 41 41 43 44 44 45 47 48 50 51 51 51 51 52 53 53 54 54 58 61 61 63
52 48 47 47 47 46 45 45 44 44 44 44 41 39 38 40 41 41 42 42 43 44 45 47 48 48 48 50 52 54 55 55 53 53 55 54 54 56 59 62 62 65 69
49 47 45 43 44 43 42 42 42 43 44 44 43 43 41 41 43 43 44 44 44 44 44 46 48 47 48 49 50 51 54 53 52 53 56 56 58 58 59 64 68 71 76
45 45 43 41 40 40 40 39 39 40 42 42 42 42 43 42 42 42 42 43 43 43 43 44 45 46 46 46 48 49 50 48 49 50 53 57 58 58 63 67 70 75 76
44 43 43 42 41 41 40 39 40 40 40 41 41 41 41 41 41 41 41 43 43 44 43 44 45 46 47 47 47 47 48 47 48 49 53 53 58 61 67 73 71 71 81
43 43 42 43 43 44 44 43 42 42 43 43 43 44 44 44 44 45 44 45 47 47 46 46 46 47 48 48 47 47 46 45 45 45 46 55 62 67 76 83 75 82 88
Wind_Direction_500mb
359 357 354 350 348 345 341 338 335 332 327 321 316 312 309 308 307 306 304 303 300 296 289 284 284 282 284 281 281 280 279 270 263 273 272 273 273 269 269 251 246 232 230
354 349 346 342 340 338 335 331 328 325 323 319 316 313 310 307 305 302 300 299 298 298 296 292 283 282 281 280 280 285 281 284 269 267 274 272 273 279 266 260 240 238 230
341 338 337 334 332 329 326 325 324 323 323 320 317 315 313 311 307 305 303 301 298 296 295 293 291 286 279 277 275 276 279 281 282 272 281 273 279 278 261 245 234 230 229
332 330 326 323 321 320 320 320 320 319 319 317 317 317 317 315 312 309 307 306 306 303 297 293 290 288 286 283 282 279 276 275 275 276 276 279 273 274 260 244 235 227 227
331 331 329 326 323 320 317 316 315 315 316 317 317 317 317 317 317 316 317 317 315 313 309 301 295 292 293 290 288 285 283 281 277 276 276 271 269 261 250 242 236 236 230
328 329 329 327 326 324 323 322 321 319 318 317 318 319 319 319 319 321 325 324 322 319 318 316 312 307 304 301 300 297 295 290 290 289 287 287 288 267 257 248 239 254 247
326 326 327 328 328 327 328 327 327 326 324 322 321 321 322 323 323 327 330 330 328 326 323 321 322 320 320 320 316 317 315 315 312 306 303 301 291 289 282 271 265 260 266
322 323 323 324 325 326 327 328 328 328 328 327 326 325 325 324 323 327 328 329 328 325 324 323 323 324 326 327 325 318 317 318 320 323 319 315 309 305 297 289 287 285 285
323 324 325 327 329 330 332 333 333 332 331 329 328 327 326 329 332 333 332 332 330 329 329 328 327 326 325 327 323 317 310 306 306 302 298 293 289 284 283 284 279 281 284
320 322 324 326 328 331 333 334 334 333 332 330 329 328 328 333 337 339 340 344 342 339 336 336 339 343 341 339 339 327 318 321 319 317 312 306 304 301 304 307 305 304 298
319 322 323 325 327 329 330 330 333 334 334 333 333 333 332 337 338 339 341 344 346 342 337 338 337 342 351 351 352 350 349 343 338 338 337 334 332 329 329 327 319 310 306
326 328 330 332 334 335 334 333 333 335 337 337 338 338 339 342 343 344 346 347 344 344 341 338 336 337 337 340 344 345 348 347 346 349 348 347 348 345 344 341 334 326 319
338 338 337 337 336 334 332 329 327 327 328 329 333 335 337 336 337 337 339 338 338 337 334 332 331 333 339 339 341 348 347 349 350 350 353 348 343 342 339 335 329 325 322
340 338 334 330 328 327 326 325 324 323 322 324 325 327 330 332 337 338 339 339 337 335 331 330 332 332 332 333 335 340 345 348 348 349 345 339 338 338 334 330 329 326 323
325 323 322 322 321 321 321 322 320 319 317 314 311 313 318 322 327 324 327 332 330 331 331 331 329 327 330 333 339 343 345 346 346 345 341 340 337 333 331 328 325 324 325
318 318 319 318 317 317 316 315 315 314 310 306 305 306 307 307 316 308 320 325 323 326 327 328 328 330 332 335 337 340 342 341 340 338 337 334 331 329 327 325 323 323 320
317 316 316 315 314 314 313 313 312 308 311 308 304 304 304 304 311 311 319 323 322 323 324 324 326 327 329 332 332 333 334 335 333 332 330 327 325 323 322 322 321 319 318
311 312 313 313 313 313 312 312 312 314 314 311 310 311 306 306 309 311 315 321 322 320 320 322 323 323 324 324 325 324 324 324 325 324 323 321 319 318 317 318 317 316 317
309 310 310 310 309 308 309 309 309 310 311 313 312 308 308 305 308 311 314 316 317 318 317 317 317 317 317 316 316 316 317 318 319 319 319 318 317 315 314 315 314 314 315
309 310 310 309 308 306 306 307 307 307 308 310 312 313 312 309 309 312 313 311 311 312 312 312 313 312 312 311 311 311 311 312 314 314 314 313 312 310 311 311 311 311 312
311 311 311 311 311 311 309 307 306 306 306 307 309 310 310 308 311 312 312 312 311 311 310 309 310 310 310 309 309 308 309 310 311 311 311 312 312 311 312 310 311 311 312
311 312 313 313 312 309 306 305 304 303 303 303 303 303 304 304 305 307 307 308 308 308 308 308 309 309 309 308 308 308 308 310 312 311 312 313 312 313 314 313 313 314 314
309 311 313 314 312 312 310 307 305 304 303 302 303 304 305 304 305 306 307 307 307 308 308 308 308 309 308 308 307 307 307 310 310 311 312 311 312 314 314 313 313 313 314
307 310 311 312 313 314 314 314 311 308 306 306 306 306 307 308 309 310 309 309 309 310 310 309 309 309 309 308 307 306 306 307 307 308 308 310 311 314 313 311 311 312 313
305 307 309 311 312 312 313 313 314 313 312 311 311 311 311 311 311 311 311 310 310 311 312 312 312 312 310 309 308 306 305 306 306 307 307 306 308 311 313 312 311 312 316
305 305 307 308 309 309 310 310 310 309 309 309 309 309 309 310 310 309 309 308 309 309 310 310 310 309 309 308 307 305 305 304 304 307 307 311 313 314 319 320 317 315 312
Wind_Speed_850mb
37 38 37 36 34 34 36 38 41 43 46 49 53 57 59 60 62 64 65 66 65 62 56 60 68 69 75 74 74 78 83 91 88 99 90 88 84 75 90 85 86 80 81
40 41 42 44 44 44 44 44 47 50 53 56 57 57 59 60 60 62 65 65 66 68 68 65 65 65 71 75 77 77 79 80 86 88 83 84 87 86 77 86 88 80 71
44 47 48 50 50 50 50 52 54 56 59 62 64 65 65 63 63 63 65 66 66 66 66 67 70 69 74 74 75 74 74 78 79 78 82 75 75 66 81 85 79 78 72
44 46 48 50 52 55 56 57 58 59 61 62 63 65 64 63 64 65 64 64 63 60 59 60 63 66 69 73 72 73 73 71 70 72 73 80 72 74 74 81 83 87 86
57 56 56 54 53 53 53 55 57 58 58 59 60 59 59 58 61 65 66 65 62 61 58 55 54 57 61 65 66 68 66 63 60 62 64 67 70 60 59 67 76 90 75
62 62 61 59 56 54 52 51 51 52 52 54 55 54 53 53 55 58 59 59 54 51 51 49 48 47 45 49 49 49 48 47 47 44 42 38 37 36 38 41 40 44 46
62 61 59 58 56 55 54 54 52 51 49 47 46 48 49 50 52 54 53 51 48 44 42 41 38 37 39 38 39 38 36 34 33 31 31 30 29 30 31 32 33 39 40
56 56 58 59 58 56 54 51 48 46 45 46 45 45 46 48 52 50 48 47 44 41 38 37 37 36 33 31 33 35 34 33 27 24 22 22 23 24 24 26 29 33 37
58 59 58 57 55 53 50 48 47 44 42 40 41 42 43 43 43 44 44 40 37 37 38 37 35 33 33 32 32 32 33 33 36 35 35 37 37 40 42 37 30 29 28
57 55 53 51 48 45 44 43 42 42 41 40 37 36 36 36 38 39 40 35 32 32 32 33 32 36 39 32 25 23 26 28 30 29 28 29 30 31 31 27 27 27 27
47 45 43 43 42 42 41 41 40 39 38 36 34 33 33 35 36 37 38 36 35 34 33 34 33 34 32 34 26 25 25 25 25 23 22 20 19 20 21 20 20 19 19
35 36 37 36 36 36 37 38 38 37 36 35 35 33 34 33 34 36 37 37 37 34 34 34 35 36 32 32 31 26 23 21 20 19 19 21 22 24 24 23 21 20 20
27 29 31 34 35 37 39 40 40 39 39 39 38 37 36 36 37 38 35 34 34 34 32 31 31 33 32 30 30 28 25 23 23 22 24 26 27 28 29 30 30 30 28
26 29 32 36 40 40 39 40 41 42 40 36 38 39 38 35 33 36 40 38 33 31 30 30 32 32 31 30 27 26 25 26 26 28 28 29 31 32 32 34 36 37 37
32 38 42 44 45 44 42 42 42 41 40 37 34 36 36 36 29 36 39 38 33 34 30 29 29 27 26 25 25 26 26 27 28 29 31 33 34 35 36 38 39 41 42
38 41 45 49 51 52 53 49 41 40 40 41 40 40 34 34 30 34 33 35 34 32 30 30 29 28 28 29 30 30 30 32 33 34 35 36 38 40 42 43 43 44 45
45 49 51 53 54 54 53 55 56 43 42 35 37 39 39 40 32 31 33 34 32 30 29 29 30 30 31 32 34 36 39 38 39 39 40 41 42 44 47 47 47 48 48
49 52 54 55 56 56 55 53 52 52 49 44 39 38 36 38 36 33 38 34 29 29 30 31 31 32 34 37 39 41 43 43 43 44 44 44 45 47 50 51 51 51 53
50 51 54 55 56 56 55 52 50 49 48 47 42 36 35 34 33 33 34 34 34 32 32 33 35 37 39 40 42 44 46 47 48 48 48 49 50 51 53 53 56 57 58
51 53 55 55 53 53 52 51 48 46 45 44 42 39 36 37 34 33 32 34 35 36 37 39 40 41 43 45 46 48 49 50 50 50 50 51 51 52 54 57 58 60 60
52 52 50 48 48 48 48 46 45 44 43 42 41 38 38 39 41 40 40 38 40 41 41 43 44 44 45 47 48 50 51 51 51 51 52 53 53 54 54 58 61 61 63
52 48 47 47 47 46 45 45 44 44 44 44 41 39 38 40 41 41 42 42 43 44 45 47 48 48 48 50 52 54 55 55 53 53 55 54 54 56 59 62 62 65 69
49 47 45 43 44 43 42 42 42 43 44 44 43 43 41 41 43 43 44 44 44 44 44 46 48 47 48 49 50 51 54 53 52 53 56 56 58 58 59 64 68 71 76
45 45 43 41 40 40 40 39 39 40 42 42 42 42 43 42 42 42 42 43 43 43 43 44 45 46 46 46 48 49 50 48 49 50 53 57 58 58 63 67 70 75 76
44 43 43 42 41 41 40 39 40 40 40 41 41 41 41 41 41 41 41 43 43 44 43 44 45 46 47 47 47 47 48 47 48 49 53 53 58 61 67 73 71 71 81
43 43 42 43 43 44 44 43 42 42 43 43 43 44 44 44 44 45 44 45 47 47 46 46 46 47 48 48 47 47 46 45 45 45 46 55 62 67 76 83 75 82 88
Wind_Direction_850mb
359 357 354 350 348 345 341 338 335 332 327 321 316 312 309 308 307 306 304 303 300 296 289 284 284 282 284 281 281 280 279 270 263 273 272 273 273 269 269 251 246 232 230
354 349 346 342 340 338 335 331 328 325 323 319 316 313 310 307 305 302 300 299 298 298 296 292 283 282 281 280 280 285 281 284 269 267 274 272 273 279 266 260 240 238 230
341 338 337 334 332 329 326 325 324 323 323 320 317 315 313 311 307 305 303 301 298 296 295 293 291 286 279 277 275 276 279 281 282 272 281 273 279 278 261 245 234 230 229
332 330 326 323 321 320 320 320 320 319 319 317 317 317 317 315 312 309 307 306 306 303 297 293 290 288 286 283 282 279 276 275 275 276 276 279 273 274 260 244 235 227 227
331 331 329 326 323 320 317 316 315 315 316 317 317 317 317 317 317 316 317 317 315 313 309 301 295 292 293 290 288 285 283 281 277 276 276 271 269 261 250 242 236 236 230
328 329 329 327 326 324 323 322 321 319 318 317 318 319 319 319 319 321 325 324 322 319 318 316 312 307 304 301 300 297 295 290 290 289 287 287 288 267 257 248 239 254 247
326 326 327 328 328 327 328 327 327 326 324 322 321 321 322 323 323 327 330 330 328 326 323 321 322 320 320 320 316 317 315 315 312 306 303 301 291 289 282 271 265 260 266
322 323 323 324 325 326 327 328 328 328 328 327 326 325 325 324 323 327 328 329 328 325 324 323 323 324 326 327 325 318 317 318 320 323 319 315 309 305 297 289 287 285 285
323 324 325 327 329 330 332 333 333 332 331 329 328 327 326 329 332 333 332 332 330 329 329 328 327 326 325 327 323 317 310 306 306 302 298 293 289 284 283 284 279 281 284
320 322 324 326 328 331 333 334 334 333 332 330 329 328 328 333 337 339 340 344 342 339 336 336 339 343 341 339 339 327 318 321 319 317 312 306 304 301 304 307 305 304 298
319 322 323 325 327 329 330 330 333 334 334 333 333 333 332 337 338 339 341 344 346 342 337 338 337 342 351 351 352 350 349 343 338 338 337 334 332 329 329 327 319 310 306
326 328 330 332 334 335 334 333 333 335 337 337 338 338 339 342 343 344 346 347 344 344 341 338 336 337 337 340 344 345 348 347 346 349 348 347 348 345 344 341 334 326 319
338 338 337 337 336 334 332 329 327 327 328 329 333 335 337 336 337 337 339 338 338 337 334 332 331 333 339 339 341 348 347 349 350 350 353 348 343 342 339 335 329 325 322
340 338 334 330 328 327 326 325 324 323 322 324 325 327 330 332 337 338 339 339 337 335 331 330 332 332 332 333 335 340 345 348 348 349 345 339 338 338 334 330 329 326 323
325 323 322 322 321 321 321 322 320 319 317 314 311 313 318 322 327 324 327 332 330 331 331 331 329 327 330 333 339 343 345 346 346 345 341 340 337 333 331 328 325 324 325
318 318 319 318 317 317 316 315 315 314 310 306 305 306 307 307 316 308 320 325 323 326 327 328 328 330 332 335 337 340 342 341 340 338 337 334 331 329 327 325 323 323 320
317 316 316 315 314 314 313 313 312 308 311 308 304 304 304 304 311 311 319 323 322 323 324 324 326 327 329 332 332 333 334 335 333 332 330 327 325 323 322 322 321 319 318
311 312 313 313 313 313 312 312 312 314 314 311 310 311 306 306 309 311 315 321 322 320 320 322 323 323 324 324 325 324 324 324 325 324 323 321 319 318 317 318 317 316 317
309 310 310 310 309 308 309 309 309 310 311 313 312 308 308 305 308 311 314 316 317 318 317 317 317 317 317 316 316 316 317 318 319 319 319 318 317 315 314 315 314 314 315
309 310 310 309 308 306 306 307 307 307 308 310 312 313 312 309 309 312 313 311 311 312 312 312 313 312 312 311 311 311 311 312 314 314 314 313 312 310 311 311 311 311 312
311 311 311 311 311 311 309 307 306 306 306 307 309 310 310 308 311 312 312 312 311 311 310 309 310 310 310 309 309 308 309 310 311 311 311 312 312 311 312 310 311 311 312
311 312 313 313 312 309 306 305 304 303 303 303 303 303 304 304 305 307 307 308 308 308 308 308 309 309 309 308 308 308 308 310 312 311 312 313 312 313 314 313 313 314 314
309 311 313 314 312 312 310 307 305 304 303 302 303 304 305 304 305 306 307 307 307 308 308 308 308 309 308 308 307 307 307 310 310 311 312 311 312 314 314 313 313 313 314
307 310 311 312 313 314 314 314 311 308 306 306 306 306 307 308 309 310 309 309 309 310 310 309 309 309 309 308 307 306 306 307 307 308 308 310 311 314 313 311 311 312 313
305 307 309 311 312 312 313 313 314 313 312 311 311 311 311 311 311 311 311 310 310 311 312 312 312 312 310 309 308 306 305 306 306 307 307 306 308 311 313 312 311 312 316
305 305 307 308 309 309 310 310 310 309 309 309 309 309 309 310 310 309 309 308 309 309 310 310 310 309 309 308 307 305 305 304 304 307 307 311 313 314 319 320 317 315 312